Probability
1 2 2 1 0 0 0 0 0 0 0 0 0 0 0 0 0 0 0 0 0 0 0 0 0 0 0 0 0 0 0 0 0 0 0 0 0 0
1 2 2 1 0 0 0 0 0 0 0 0 0 0 0 0 0 0 0 0 0 0 0 0 0 0 0 0 0 0 0 0 0 0 0 0 0 0
0 1 1 0 0 0 0 0 0 0 0 0 0 0 0 0 0 0 0 0 0 0 0 0 0 0 0 0 0 0 0 0 0 0 0 0 0 0
0 0 0 0 0 0 0 0 0 0 0 0 0 0 0 0 0 0 0 0 0 0 0 0 0 0 0 0 0 0 0 0 0 0 0 0 0 0
0 0 0 0 0 0 0 0 0 0 0 0 0 0 0 0 0 0 0 0 0 0 0 0 0 0 0 0 0 0 0 0 0 0 0 0 0 0
0 0 0 0 0 0 0 0 0 0 0 0 0 0 0 0 0 0 0 0 0 0 0 0 0 0 0 0 0 0 0 0 0 0 0 0 0 0
0 0 0 0 0 0 0 0 0 0 0 0 0 0 0 0 0 0 0 0 0 0 0 0 0 0 0 0 0 0 0 0 0 0 0 0 0 0
0 0 0 0 0 0 0 0 0 0 0 0 0 0 0 0 0 0 0 0 0 0 0 0 0 0 0 0 0 0 0 0 0 0 0 0 0 0
0 0 0 0 0 0 0 0 0 0 0 0 0 0 0 0 0 0 0 0 0 0 0 0 0 0 0 0 0 0 0 0 0 0 0 0 0 0
0 0 0 0 0 0 0 0 0 0 0 0 0 0 0 0 0 0 0 0 0 0 0 0 0 0 0 0 0 0 0 0 0 0 0 0 0 0
0 0 0 0 0 0 0 0 0 0 0 0 0 0 0 0 0 0 0 0 0 0 0 0 0 0 0 0 0 0 0 0 0 0 0 0 0 0
0 0 0 0 0 0 0 0 0 0 0 0 0 0 0 0 0 0 0 0 0 0 0 0 0 0 0 0 0 0 0 0 0 0 0 0 0 0
0 0 0 0 0 0 0 0 0 0 0 0 0 0 0 0 0 0 0 0 0 0 0 0 0 0 0 0 0 0 0 0 0 0 0 0 0 0
0 0 0 0 0 0 0 0 0 0 0 0 0 0 0 0 0 0 0 0 0 0 0 0 0 0 0 0 0 0 0 0 0 0 0 0 0 0
0 0 0 0 0 0 0 0 0 0 0 0 0 0 0 0 0 0 0 0 0 0 0 0 0 0 0 0 0 0 0 0 0 0 0 0 0 0
0 0 0 0 0 0 0 0 0 0 0 0 0 0 0 0 0 0 0 0 0 0 0 0 0 0 0 0 0 0 0 0 0 0 0 0 0 0
0 0 0 0 0 0 0 0 0 0 0 0 0 0 0 0 0 0 0 0 0 0 0 0 0 0 0 0 0 0 0 0 0 0 0 0 0 0
0 0 0 0 0 0 0 0 0 0 0 0 0 0 0 0 0 0 0 0 0 0 0 0 0 0 0 0 0 0 0 0 0 0 0 0 0 0
0 0 0 0 0 0 0 0 0 0 0 0 0 0 0 0 0 0 0 0 0 0 0 0 0 0 0 0 0 0 0 0 0 0 0 0 0 0
0 0 0 0 0 0 0 0 0 0 0 0 0 0 0 0 0 0 0 0 0 0 0 0 0 0 0 0 0 0 0 0 0 0 0 0 0 0
0 0 0 0 0 0 0 0 0 0 0 0 0 0 0 0 0 0 0 0 0 0 0 0 0 0 0 0 0 0 0 0 0 0 0 0 0 0
0 0 0 0 0 0 0 0 0 0 0 0 0 0 0 0 0 0 0 0 0 0 0 0 0 0 0 0 0 0 0 0 0 0 0 0 0 0
0 0 0 0 0 0 0 0 0 0 0 0 0 0 0 0 0 0 0 0 0 0 0 0 0 0 0 0 0 0 0 0 0 0 0 0 0 0
Wind_Speed
4 3 3 2 2 2 2 3 3 3 4 2 2 2 2 2 3 2 2 5 5 6 5 4 4 4 4 4 4 4 4 4 5 6 6 5 5 5
3 4 3 3 2 2 2 2 2 3 4 2 2 2 2 2 3 2 3 5 5 5 5 4 4 5 5 5 5 5 5 5 5 6 7 7 7 6
4 4 4 4 3 3 3 3 2 2 4 3 2 2 1 2 2 1 2 2 3 5 5 5 5 6 5 5 5 6 6 6 6 6 7 7 7 7
6 6 6 4 4 4 3 3 3 3 3 4 3 2 2 2 2 2 2 2 2 5 6 6 7 6 6 6 6 6 7 7 7 7 7 7 8 8
7 7 6 6 6 4 4 4 3 3 3 4 4 2 2 1 1 2 2 2 2 4 6 7 7 7 7 7 7 8 7 7 7 7 7 7 7 7
6 6 7 7 7 6 5 5 4 4 3 3 3 3 2 2 1 2 2 1 2 2 4 5 6 7 8 9 9 8 7 7 8 8 7 7 7 8
5 6 6 8 9 7 6 5 5 4 4 4 4 3 3 2 3 2 2 2 2 2 2 3 3 3 4 7 8 8 8 8 8 8 8 8 8 8
6 5 6 7 9 10 11 10 8 6 6 5 5 5 5 4 3 3 2 2 3 2 2 4 3 4 4 4 7 9 8 8 8 8 8 8 8 8
6 5 5 6 7 6 7 9 9 10 10 7 7 7 6 5 4 4 4 4 4 3 2 4 2 4 3 5 9 9 9 8 9 9 8 9 9 8
5 5 6 6 6 6 6 6 6 6 7 6 6 6 6 5 5 5 4 3 3 2 2 3 3 3 3 4 9 10 9 8 8 8 9 9 9 9
4 4 5 5 8 9 6 6 6 5 6 8 9 8 9 9 6 3 3 3 4 3 2 3 2 2 3 4 5 9 9 9 9 9 10 9 9 8
3 4 6 6 7 8 6 6 6 6 5 5 5 6 6 6 8 6 5 5 3 3 3 2 2 1 2 2 3 3 5 8 9 10 10 10 9 5
3 3 3 7 7 7 6 5 7 5 4 4 4 4 4 4 4 5 5 5 5 4 3 2 2 2 3 3 2 3 3 3 4 5 8 10 9 6
3 3 3 5 6 6 5 5 6 5 2 3 3 3 3 3 3 3 3 3 3 4 4 3 3 4 3 4 4 2 2 3 3 3 3 6 7 9
3 4 4 5 5 4 4 5 4 2 2 3 3 3 3 2 2 2 2 2 2 2 3 3 3 3 3 4 4 3 3 3 3 3 3 3 4 3
2 3 4 4 3 3 3 2 1 2 2 3 3 2 1 1 2 2 2 1 1 2 2 2 3 4 3 4 4 4 4 3 3 3 3 3 3 3
1 1 1 1 1 1 1 1 1 1 2 2 2 2 2 2 2 2 2 1 2 2 2 1 1 1 2 3 4 5 4 4 4 3 3 4 4 3
1 1 1 1 1 1 2 1 1 1 2 2 2 2 2 2 2 2 2 2 3 3 2 1 1 1 1 2 4 5 4 3 3 3 3 4 5 4
1 1 1 1 1 1 1 1 2 2 1 2 2 2 2 2 2 3 3 3 3 3 2 2 2 2 2 4 4 3 3 3 3 3 3 4 5 5
0 1 1 1 1 1 1 1 1 1 1 2 2 2 2 3 3 3 3 3 3 3 2 2 3 3 3 3 3 4 5 4 3 4 4 3 4 5
1 1 1 1 1 1 2 2 2 2 2 2 2 3 2 2 3 3 3 4 3 2 3 3 3 3 1 0 2 3 3 4 5 4 3 3 4 4
2 2 2 2 2 2 2 2 2 2 2 3 3 3 2 2 3 3 3 3 3 3 3 2 1 1 1 2 3 3 3 3 4 6 6 5 4 4
2 2 2 2 2 2 2 2 3 3 3 3 3 2 2 3 3 3 3 3 3 3 2 2 1 1 1 2 2 2 3 3 3 3 4 6 7 8
Wind_Direction
213 213 214 223 222 223 213 193 193 230 249 234 226 233 235 230 246 228 222 247 264 267 257 258 262 262 260 263 260 262 260 258 251 246 245 250 262 271
214 213 221 222 220 220 222 226 218 215 243 232 235 237 232 246 253 240 229 250 252 257 255 258 262 263 259 255 255 256 257 256 256 252 248 250 256 263
220 215 222 220 215 217 222 224 226 221 247 266 262 237 218 223 241 224 226 221 234 248 250 255 257 256 257 258 256 256 257 256 255 258 256 251 251 256
218 218 221 221 219 221 217 223 226 215 219 245 260 236 225 215 219 226 241 241 230 254 252 252 254 253 254 253 255 256 257 258 257 259 262 261 254 253
217 220 219 214 221 225 222 222 226 228 218 223 247 246 240 219 221 246 247 239 257 260 258 253 251 250 250 251 252 255 255 257 258 258 260 264 262 259
224 224 222 219 219 218 223 222 219 220 220 224 238 241 233 227 211 223 262 247 259 267 265 265 256 252 250 252 252 254 253 256 255 253 254 256 261 261
226 226 228 230 230 229 229 220 212 214 219 226 231 244 235 208 218 220 252 274 265 236 251 257 255 250 246 249 249 246 250 253 255 257 255 255 257 257
228 228 232 233 234 236 239 236 229 219 217 225 234 232 236 226 226 228 238 252 272 236 236 266 243 244 244 239 244 245 248 252 256 256 254 256 258 259
230 229 237 237 236 226 233 236 239 238 234 229 231 233 235 229 224 230 231 238 253 242 231 267 253 252 252 250 248 246 248 251 257 255 253 255 258 260
236 230 231 231 227 223 221 230 237 240 240 236 231 237 242 235 225 227 228 244 264 246 214 249 246 256 269 252 243 242 244 249 254 255 255 255 257 260
244 240 238 233 237 236 224 225 236 243 248 248 248 249 252 254 248 228 217 229 252 243 218 228 242 271 271 259 243 241 245 250 252 258 260 256 258 262
245 244 248 247 242 239 224 219 231 236 234 241 244 249 250 249 249 235 219 226 243 248 205 198 225 260 280 261 248 244 247 250 255 260 260 258 257 256
244 244 247 252 250 248 243 227 235 240 228 227 231 232 234 234 233 230 226 225 233 241 207 188 216 223 235 271 275 256 238 247 256 258 259 259 257 256
244 247 251 256 257 259 257 248 251 252 227 223 225 229 230 235 236 228 231 238 241 242 218 208 223 222 237 262 269 271 272 258 250 252 250 258 262 264
253 251 260 262 263 258 265 266 254 229 218 224 227 236 232 229 223 224 235 230 246 243 226 223 228 232 235 248 259 268 286 277 250 238 239 242 250 251
265 259 255 258 262 266 271 264 239 224 220 230 240 241 232 218 220 216 227 222 248 281 265 231 220 220 242 250 251 261 258 253 258 258 257 256 251 244
251 262 253 250 232 230 234 237 231 225 237 235 235 236 232 228 234 220 219 216 233 252 285 303 266 242 249 250 252 248 256 262 253 253 260 267 260 248
226 219 240 246 240 243 245 246 245 244 246 241 235 235 233 229 234 229 215 215 235 245 248 251 264 314 317 293 254 242 248 261 265 258 253 263 272 265
182 204 233 247 254 256 254 248 250 252 243 235 237 234 232 231 226 229 227 221 229 237 237 224 217 218 263 282 290 261 261 272 271 269 260 259 264 267
236 236 242 248 248 252 255 260 273 277 256 242 238 237 233 229 227 225 226 227 233 234 235 224 218 221 235 249 272 290 275 258 260 271 281 287 281 274
246 250 252 253 259 256 257 257 256 255 258 251 245 240 235 231 234 232 228 240 240 227 230 239 242 261 269 156 283 289 293 288 279 273 278 289 290 285
257 254 260 260 257 251 252 248 248 248 246 245 248 243 238 234 236 237 229 227 227 225 232 242 237 236 220 235 256 273 295 312 311 306 297 278 265 257
264 264 263 262 259 251 245 247 247 250 248 245 247 244 240 241 237 232 233 229 223 216 210 217 239 262 257 230 244 268 284 304 318 327 320 314 303 288